INSAT-3DS

Last updated on Wed Sep 17 2025 00:02:23 GMT+0000 (Coordinated Universal Time)

1 58990U 24033A 25259.59273046 -.00000175 00000+0 00000+0 0 9994 2 58990 0.0322 266.9958 0001436 288.5744 95.6821 1.00271615 44324
UTC large
Height (km)
Speed (km/s)
/
Latitude / Longitude
Inclination (degrees)
Orbital Period (minutes)
Azimuth
Elevation
Range (km)
Doppler Factor

Next 0 passes for location: London (51.5072 / 0.1276)

Sorry there are no passes over London.